Weather History for Beaufort, NC

Change the Weather History Date:

Thursday, February 21, 2013

  Actual Average Record
Temperature  
Mean Temperature 42 °F -  
Max Temperature 52 °F 60 °F 71 °F (1971)
Min Temperature 33 °F 38 °F 21 °F (1959)
Degree Days  
Heating Degree Days 22    
Moisture  
Dew Point 30 °F    
Average Humidity 62    
Maximum Humidity 93    
Minimum Humidity 39    
Precipitation  
Precipitation 0.00 in - - ()
Sea Level Pressure  
Sea Level Pressure 30.17 in    
Wind  
Wind Speed 5 mph (North)    
Max Wind Speed 13 mph    
Max Gust Speed -    
Visibility 10 miles    
Events      
Averages and records for this station are not official NWS values.
T = Trace of Precipitation, MM = Missing Value Source: NWS Daily Summary

Daily Weather History Graph

Daily Weather History Graph

Search for Another Location

Airport:

Trip Planner

Search our weather history database for the weather conditions in past years. The results will help you decide how hot, cold, wet, or windy it might be!

Date:

Astronomy

Feb. 21, 2013 Rise Set
Actual Time 6:45 AM EST 5:55 PM EST
Civil Twilight 6:19 AM EST 6:21 PM EST
Nautical Twilight 5:50 AM EST 6:50 PM EST
Astronomical Twilight 5:21 AM EST 7:19 PM EST
Moon 2:14 PM EST (2/21) 3:41 AM EST (2/21)
Length of Visible Light 12h 01m
Length of Day
11h 10m
Waxing Gibbous, 83% of the Moon is Illuminated
Feb 21
Waxing Gibbous
Feb 25
Full
Mar 4
Last Quarter
Mar 11
New
Mar 19
First Quarter

Hourly Weather History & Observations

Time (EST) Temp. Windchill Dew Point Humidity Pressure Visibility Wind Dir Wind Speed Gust Speed Precip Events Conditions
12:58 AM 36.0 °F - 34.0 °F 93% 30.09 in 10.0 mi Calm Calm - N/A   Clear
1:58 AM 39.9 °F 35.1 °F 27.0 °F 60% 30.10 in 10.0 mi North 6.9 mph - N/A   Clear
2:58 AM 37.9 °F 32.1 °F 23.0 °F 55% 30.11 in 10.0 mi North 8.1 mph - N/A   Clear
3:58 AM 36.0 °F 31.1 °F 23.0 °F 59% 30.11 in 10.0 mi North 5.8 mph - N/A   Clear
4:58 AM 37.0 °F 31.0 °F 24.1 °F 59% 30.14 in 10.0 mi North 8.1 mph - N/A   Clear
5:58 AM 36.0 °F 29.6 °F 23.0 °F 59% 30.16 in 10.0 mi North 8.1 mph - N/A   Clear
6:58 AM 33.1 °F 27.7 °F 25.0 °F 72% 30.17 in 10.0 mi North 5.8 mph - N/A   Clear
7:58 AM 37.9 °F 32.1 °F 30.9 °F 76% 30.19 in 10.0 mi North 8.1 mph - N/A   Clear
8:58 AM 41.0 °F 33.9 °F 33.1 °F 73% 30.20 in 10.0 mi North 12.7 mph - N/A   Clear
9:58 AM 45.0 °F 39.7 °F 30.9 °F 58% 30.20 in 10.0 mi NNE 10.4 mph - N/A   Clear
10:58 AM 46.9 °F - 28.9 °F 50% 30.19 in 10.0 mi NW 6.9 mph - N/A   Clear
11:58 AM 48.9 °F - 27.0 °F 43% 30.18 in 10.0 mi NW 6.9 mph - N/A   Clear
12:58 PM 51.1 °F - 27.0 °F 39% 30.16 in 10.0 mi NNW 5.8 mph - N/A   Clear
1:58 PM 52.0 °F - 30.0 °F 43% 30.13 in 10.0 mi SSW 6.9 mph - N/A   Clear
2:58 PM 50.0 °F - 32.0 °F 50% 30.12 in 10.0 mi South 6.9 mph - N/A   Clear
3:58 PM 50.0 °F - 32.0 °F 50% 30.11 in 10.0 mi South 6.9 mph - N/A   Clear
4:58 PM 48.9 °F - 34.0 °F 56% 30.13 in 10.0 mi SE 3.5 mph - N/A   Clear
5:58 PM 46.0 °F - 35.1 °F 66% 30.15 in 10.0 mi Calm Calm - N/A   Clear
6:58 PM 42.1 °F 39.2 °F 35.1 °F 76% 30.19 in 10.0 mi ENE 4.6 mph - N/A   Clear
7:58 PM 42.1 °F - 34.0 °F 73% 30.22 in 10.0 mi Calm Calm - N/A   Clear
8:58 PM 42.1 °F - 33.1 °F 70% 30.24 in 10.0 mi Calm Calm - N/A   Clear
9:58 PM 43.0 °F 38.8 °F 34.0 °F 71% 30.25 in 10.0 mi ENE 6.9 mph - N/A   Clear
10:58 PM 43.0 °F 37.2 °F 33.1 °F 68% 30.25 in 10.0 mi NE 10.4 mph - N/A   Clear
11:58 PM 41.0 °F 37.1 °F 33.1 °F 73% 30.26 in 10.0 mi NE 5.8 mph - N/A   Clear